Wind_Speed
5 5 5 6 6 7 8 9 8 8 8 7 6 5 5 4 3 2 1 1 0 2 2 1 1 3 5 6 6 6 6 7 7 7 8 7 6 6 5 5 3 4 5 5 5 4 5 5 5 5 5 5 5 3 3 2 0 1 2 3 4 4 4 4 4 4 4 5 6 6 6 6 7 7 8 8 9 10 10 9 10 11 10 9 10
4 4 5 5 5 5 7 9 9 8 8 7 6 6 6 6 4 3 3 2 2 3 3 1 1 3 5 6 6 5 6 8 7 7 7 7 7 7 6 5 4 3 4 4 5 5 5 5 6 5 5 5 5 5 3 3 2 1 1 1 2 2 3 3 4 3 3 4 4 5 5 5 6 6 7 7 8 9 9 9 10 10 9 8 8
4 5 5 5 4 4 6 8 8 8 7 6 6 6 6 6 5 4 4 4 4 5 3 1 1 3 6 7 6 5 5 7 8 7 7 8 8 7 6 6 5 4 4 4 4 5 5 5 5 6 6 6 6 5 5 4 3 2 3 2 0 1 2 2 2 3 3 3 3 3 4 4 5 5 6 6 7 8 9 9 10 9 9 9 9
5 6 6 5 4 4 6 6 6 7 7 6 6 6 6 6 6 5 5 5 5 5 3 2 2 3 6 7 7 5 4 6 8 8 8 7 8 7 6 6 5 5 4 3 3 4 5 4 4 5 6 6 6 5 5 5 4 4 4 4 2 1 2 2 1 1 3 3 3 2 2 3 3 4 5 5 6 7 8 9 9 9 9 9 9
7 7 6 5 5 5 6 7 7 7 6 6 6 6 5 5 5 4 4 5 5 5 3 2 3 3 4 5 6 5 4 4 5 6 6 6 6 6 6 6 6 5 4 4 4 4 5 5 4 5 5 6 6 6 5 5 5 5 5 5 4 2 1 1 1 0 1 2 3 2 2 2 2 3 3 4 5 5 7 8 8 8 8 8 9
8 8 6 6 6 6 7 8 8 8 7 6 5 5 4 3 4 3 4 5 5 4 3 1 2 2 2 3 4 4 4 3 3 4 5 5 5 5 6 6 6 5 5 5 4 4 5 6 5 4 4 4 5 6 6 6 5 6 6 6 4 3 2 0 0 1 1 2 2 2 2 2 1 2 2 3 4 4 6 7 8 8 8 8 8
6 8 7 6 7 7 8 7 7 7 7 6 5 5 4 3 3 4 5 5 4 4 3 1 1 1 1 1 2 3 3 4 4 5 5 5 5 5 6 6 5 5 5 5 5 4 5 6 6 6 4 3 4 5 7 7 6 6 7 6 4 3 3 3 1 1 1 2 2 2 2 2 2 1 1 2 3 4 5 6 7 7 7 8 7
3 6 6 6 6 7 8 6 5 6 6 7 6 4 4 5 5 5 5 5 4 3 3 2 1 1 1 1 2 3 3 4 5 6 7 7 7 7 7 6 6 6 5 5 5 5 5 5 6 7 6 4 3 4 6 7 6 5 6 6 5 4 4 5 4 3 1 2 2 2 2 2 2 2 0 1 2 3 4 5 6 6 7 8 7
1 3 3 4 5 5 6 5 4 5 6 7 5 5 5 7 8 7 5 4 3 2 1 2 2 2 2 2 3 3 5 5 6 7 7 8 9 9 8 8 8 7 6 6 6 6 5 5 5 7 7 5 4 3 5 7 7 4 4 6 6 5 5 5 6 5 4 2 2 1 2 2 2 2 1 1 2 3 4 5 5 5 6 7 7
1 2 1 3 4 4 4 2 3 5 5 5 4 5 6 7 7 7 6 6 5 3 2 2 2 2 2 3 4 5 6 6 7 7 7 7 8 10 10 9 9 9 9 8 8 7 6 5 5 6 6 6 4 3 4 6 7 7 5 5 6 6 5 5 5 6 6 5 3 2 2 2 2 3 2 2 2 3 4 4 5 4 5 6 6
1 1 1 2 3 3 2 2 3 4 4 3 3 4 4 5 6 7 10 9 8 6 4 5 5 4 4 4 4 4 4 4 5 5 6 6 7 8 9 9 10 11 11 10 9 8 7 6 5 5 6 7 6 4 4 4 6 7 7 7 6 6 6 3 3 5 6 7 7 5 4 3 2 3 3 3 3 3 3 4 5 5 5 5 6
2 1 1 1 1 1 0 1 2 2 3 2 2 2 2 4 6 8 11 10 8 7 7 7 7 5 5 5 5 4 3 3 2 1 2 3 3 3 3 5 7 9 10 10 8 6 5 5 4 4 5 7 8 7 6 5 6 7 8 8 7 7 7 4 3 4 5 7 9 8 7 5 3 3 4 4 4 3 3 4 4 4 5 5 6
5 4 3 1 0 0 1 1 1 2 2 2 2 2 2 4 6 8 10 9 8 9 9 8 7 5 5 4 5 5 4 4 3 2 2 1 1 1 1 0 1 2 4 4 4 2 3 5 6 5 4 5 7 8 9 8 8 8 9 9 8 7 7 7 8 7 6 6 9 10 10 9 7 5 4 4 5 4 3 3 4 4 4 5 5
6 6 5 3 2 2 2 2 2 2 1 2 2 2 2 3 6 7 8 8 8 8 9 8 5 5 4 3 5 5 4 4 5 5 4 3 1 0 1 1 0 2 3 3 3 2 2 4 8 9 8 6 6 7 7 8 9 9 9 10 10 8 7 8 10 11 9 7 8 10 11 10 9 8 6 5 5 5 4 4 4 4 4 4 5
6 6 6 5 4 4 3 2 2 2 1 1 2 3 3 4 6 7 6 5 6 6 7 6 4 3 3 3 3 3 4 5 5 4 4 5 4 3 2 3 5 5 4 4 4 4 4 5 7 9 9 7 8 9 7 6 9 11 10 10 10 10 9 9 10 10 11 9 9 10 12 11 10 10 9 7 7 6 6 5 5 4 4 4 5
5 6 6 5 4 4 4 3 2 2 2 1 1 3 4 4 6 6 6 5 5 5 5 5 4 3 3 1 1 2 3 3 3 1 1 2 2 3 3 3 6 7 5 5 4 5 5 4 5 6 5 5 7 9 6 5 8 9 7 7 8 9 9 10 11 11 10 10 10 11 12 12 10 9 9 9 8 8 7 7 6 5 5 5 5
5 5 4 4 3 3 4 4 2 2 2 1 1 2 3 4 4 5 5 4 4 5 5 5 5 5 4 1 1 2 1 1 2 1 4 3 2 3 2 3 4 5 5 5 5 5 4 4 3 3 4 3 6 7 6 6 6 6 4 3 3 3 5 6 9 10 11 11 11 12 13 13 11 10 9 9 9 9 9 8 8 7 7 6 6
4 4 4 4 3 3 4 4 2 2 2 2 1 2 2 3 2 4 4 4 4 4 4 4 4 4 5 2 0 1 0 2 2 2 6 8 7 5 3 2 2 3 3 2 2 3 3 4 3 2 3 4 5 6 7 6 5 3 3 4 4 4 3 3 5 8 10 12 13 12 13 14 14 12 12 10 10 10 9 9 10 10 10 9 9
5 5 4 4 4 4 5 4 4 4 4 4 4 3 3 3 3 3 4 3 4 4 4 4 4 4 4 3 1 1 1 2 1 2 3 6 9 10 9 5 1 1 2 1 1 2 3 4 3 1 2 3 5 5 5 5 5 4 4 5 5 5 5 4 5 6 7 9 12 13 14 15 16 15 14 13 12 11 11 10 11 11 12 12 11
5 5 5 5 5 5 5 5 5 6 7 6 6 6 4 3 3 3 3 3 4 4 3 4 4 5 5 3 1 2 3 3 2 2 3 4 5 8 11 13 12 9 5 2 0 0 2 3 3 3 3 4 5 6 5 5 4 5 6 6 5 5 5 5 6 6 6 7 9 12 14 15 16 16 16 16 16 15 13 12 12 12 13 14 13
5 5 5 6 6 6 5 4 4 5 6 6 6 6 5 4 4 4 4 4 4 4 4 3 3 5 6 4 4 6 6 5 4 4 4 4 4 4 6 11 15 16 14 11 7 6 4 3 5 6 5 5 5 5 5 5 5 5 5 5 4 4 4 4 5 5 5 5 6 8 11 13 15 16 16 16 16 16 15 15 15 15 15 16 15
6 6 6 6 5 4 3 2 2 3 4 5 5 6 6 7 7 6 6 5 4 4 5 5 4 4 6 7 6 7 5 4 4 5 4 4 5 6 6 8 11 13 15 16 14 13 12 10 10 10 10 8 6 6 7 7 8 7 5 4 4 4 3 3 3 3 4 4 5 6 8 10 11 13 15 15 14 14 15 15 16 17 17 17 16
7 7 6 5 4 3 2 2 2 2 3 3 4 5 8 10 11 10 9 8 7 7 7 7 7 7 7 7 6 5 5 5 5 5 5 6 7 7 8 10 11 11 13 15 16 16 16 16 16 16 16 15 12 11 11 11 11 9 7 7 6 5 5 6 4 4 6 6 4 4 4 5 5 7 12 15 15 14 13 12 14 16 17 16 16
8 7 6 5 4 4 3 3 3 3 2 3 5 7 8 10 11 11 10 10 10 11 11 12 12 12 10 9 8 7 7 7 7 6 7 9 9 9 9 10 11 11 11 13 16 16 16 16 17 17 18 18 17 16 15 14 13 10 10 11 11 10 9 8 7 6 8 8 7 7 6 3 1 2 7 11 12 13 13 12 12 14 16 16 16
8 7 6 5 5 5 5 4 4 3 3 4 6 7 7 8 8 8 8 9 10 11 12 13 13 13 13 12 10 9 8 8 7 7 7 10 11 10 9 8 9 9 8 9 12 14 15 15 14 15 16 17 17 17 16 15 14 12 11 12 12 11 11 11 10 9 8 9 9 9 8 6 4 1 2 5 6 9 11 11 11 13 15 16 17
7 6 6 5 5 6 6 5 5 5 5 5 5 5 6 6 6 7 8 9 9 10 11 11 10 11 11 11 11 10 10 9 7 6 6 8 9 10 10 8 8 8 7 8 9 10 12 13 13 14 14 15 15 15 15 14 13 12 11 12 12 12 11 11 9 9 8 8 8 7 6 6 5 3 2 2 3 5 5 5 7 9 11 12 13
6 5 5 5 5 6 7 7 7 7 6 5 4 4 4 4 5 6 8 8 8 9 9 10 10 10 10 12 12 11 11 10 8 7 5 5 7 11 12 9 7 6 7 8 9 9 9 10 13 14 13 14 14 14 14 13 12 11 10 11 13 12 11 11 10 9 9 9 8 7 6 4 4 3 2 2 3 4 5 5 5 7 8 9 10
6 5 5 4 4 6 7 7 8 9 8 7 6 4 3 4 5 6 7 8 8 8 9 10 10 11 11 12 12 11 11 10 10 10 9 8 8 10 10 8 7 6 5 6 7 8 8 8 10 13 12 12 13 14 14 13 12 11 10 11 13 12 11 10 10 10 10 10 9 8 7 6 5 4 4 3 3 3 4 5 6 8 9 10 11
6 5 5 4 4 5 5 6 7 8 9 9 8 6 5 5 6 6 7 7 7 8 9 10 11 11 12 12 12 12 11 11 10 11 12 11 9 8 7 7 6 5 5 4 4 6 7 7 8 10 11 11 12 12 13 12 12 11 11 11 12 12 10 9 9 9 9 9 8 7 7 6 6 6 6 5 5 4 4 4 5 6 8 9 11
5 5 4 4 4 4 3 4 4 6 7 8 8 7 7 6 6 6 6 6 7 8 8 9 10 10 11 11 11 11 10 10 10 10 11 12 12 9 7 5 4 3 5 5 4 4 6 7 8 8 9 10 10 11 11 11 9 10 10 10 10 9 8 7 7 7 7 7 7 7 6 6 6 6 6 6 6 6 6 5 5 5 6 8 9
6 5 4 4 4 3 2 2 3 4 5 6 7 7 7 6 6 6 5 5 6 7 8 8 8 8 8 9 9 9 9 8 9 9 10 11 12 11 10 8 6 5 5 6 5 4 4 6 7 7 8 10 10 10 10 10 8 8 8 8 8 7 6 6 6 6 6 6 6 5 5 5 6 6 6 6 6 6 6 6 6 6 7 7 8
7 6 5 5 4 3 3 2 2 3 3 4 5 5 5 5 5 4 4 3 4 5 7 7 7 6 6 6 7 7 7 8 9 9 10 10 10 10 10 11 10 9 6 6 7 6 5 5 5 6 8 10 11 11 10 10 9 9 8 8 7 7 7 7 7 6 6 6 5 5 5 5 6 6 6 6 7 7 7 7 8 8 8 9 9
8 8 6 6 5 4 3 2 2 2 1 2 2 3 3 4 3 3 3 2 2 2 3 5 5 5 5 5 5 5 5 6 8 8 8 8 9 9 9 9 10 9 7 7 9 8 6 5 5 6 8 9 9 11 11 11 11 10 9 9 9 9 10 9 9 9 8 7 7 6 6 7 7 7 8 8 8 8 8 8 9 9 10 10 10
8 8 7 6 5 4 3 1 1 1 1 1 1 0 1 2 3 3 3 2 1 1 1 3 3 3 3 3 4 4 3 4 5 6 6 6 7 8 9 9 9 10 8 7 8 8 7 5 5 5 8 9 8 10 11 11 11 11 10 10 11 11 11 11 10 10 10 9 8 8 7 8 8 9 9 10 10 10 10 10 10 10 11 11 11
8 8 6 5 4 4 3 2 1 1 2 2 2 2 2 3 3 4 4 4 5 5 4 4 4 3 2 2 2 3 3 3 4 4 4 5 6 7 9 10 10 10 10 8 7 7 7 6 4 4 5 8 8 9 10 11 12 12 11 11 12 12 13 13 11 10 11 10 9 8 8 8 9 10 10 11 12 12 12 12 12 12 12 13 13
10 9 7 5 5 5 5 4 3 3 2 3 3 3 4 4 4 5 6 7 8 8 8 7 6 5 4 4 4 3 3 3 4 4 4 4 5 6 8 9 10 10 10 9 7 7 7 6 5 4 4 5 6 8 9 9 10 11 12 12 13 14 16 16 15 13 12 11 10 9 9 9 10 11 12 12 12 12 12 12 12 13 13 14 15
13 11 9 7 5 6 7 7 5 5 4 4 5 5 5 6 6 8 9 10 9 10 11 12 11 9 7 7 6 5 5 5 5 5 4 4 5 5 7 7 8 9 9 9 8 7 6 6 5 5 5 4 4 7 9 8 7 8 10 11 12 16 19 20 19 16 14 13 13 12 12 13 14 14 13 13 12 12 12 12 12 12 12 14 15
13 13 12 10 8 9 10 9 8 8 7 6 7 8 8 8 8 9 11 12 10 9 12 15 16 15 12 9 9 8 8 7 6 6 6 5 4 4 5 6 7 8 8 8 8 7 7 6 5 4 4 4 4 6 9 11 8 8 10 9 9 13 18 21 20 17 16 16 17 18 18 19 18 17 15 13 12 11 11 11 11 11 12 12 13
13 14 14 13 13 13 12 11 11 11 10 10 11 10 10 10 10 11 13 14 13 13 14 15 17 18 16 12 10 10 10 10 8 7 7 6 5 5 5 5 6 7 8 8 7 7 6 5 4 3 3 4 5 5 8 11 8 8 12 11 9 11 16 20 18 15 15 17 19 20 22 23 21 19 18 15 12 12 11 10 10 10 11 12 12
13 15 17 16 14 13 11 10 11 11 11 12 14 12 11 11 11 12 13 13 14 15 16 16 18 19 18 15 13 11 10 11 11 10 8 7 6 6 5 5 5 5 6 7 6 5 4 3 3 2 2 2 4 4 6 8 7 7 11 13 12 12 15 17 13 10 12 15 18 20 21 21 21 19 17 14 12 14 12 9 9 9 10 10 11
13 14 16 16 14 12 11 11 13 14 14 14 13 12 11 10 10 10 10 11 13 13 14 16 17 17 17 16 15 13 11 12 14 13 12 10 8 7 5 4 4 5 5 5 4 3 2 2 2 2 1 2 4 5 5 6 7 8 10 11 11 12 14 14 10 7 10 15 18 18 17 18 20 18 13 10 11 15 13 9 8 9 9 9 9
12 13 14 14 13 13 13 15 17 18 16 13 12 11 11 10 10 10 10 11 11 11 13 14 14 13 13 13 14 14 14 15 15 16 15 13 10 8 6 5 6 5 5 4 3 2 1 1 2 2 3 3 3 4 4 5 6 7 8 10 11 12 14 14 9 6 9 16 20 18 14 13 16 16 10 9 12 14 11 8 9 9 9 8 7
13 14 15 14 13 13 14 14 14 14 13 12 11 11 11 10 10 10 10 9 9 10 11 12 12 11 10 10 10 11 13 15 16 16 16 14 12 10 8 8 7 5 4 3 2 1 1 1 1 2 3 3 3 3 3 4 5 7 8 9 10 11 12 13 11 8 9 16 20 18 13 10 11 12 9 8 10 11 10 11 12 11 10 10 9
15 16 16 14 12 11 12 12 12 12 11 11 11 10 9 8 7 7 7 8 8 9 10 10 11 11 10 10 10 9 10 12 13 12 14 15 13 11 11 10 8 5 4 1 1 2 2 2 2 2 3 3 3 2 3 5 6 8 8 8 8 10 10 11 11 10 12 17 18 15 14 11 8 10 11 8 8 10 13 14 14 12 11 11 11
15 15 13 11 10 9 10 10 10 9 9 8 8 8 7 6 5 4 4 4 5 6 8 9 10 10 10 9 9 10 10 10 10 9 13 17 15 13 13 11 8 5 4 3 2 3 4 4 3 3 3 4 4 3 6 9 9 8 9 9 9 9 9 10 12 14 17 18 15 13 16 14 9 10 13 10 9 10 13 15 16 14 12 12 12
12 11 10 9 9 9 8 8 8 7 7 7 8 9 8 7 6 4 2 2 3 5 7 8 9 10 9 8 7 8 9 9 8 8 12 17 17 15 13 10 7 6 5 4 4 5 5 5 4 4 5 6 5 6 10 12 11 9 9 10 10 10 11 13 15 17 17 14 9 10 15 14 11 11 13 12 12 12 13 15 18 15 12 12 11
9 9 8 8 8 8 7 7 7 7 8 9 9 9 9 9 7 6 4 2 2 4 6 7 8 9 9 9 8 7 7 7 6 6 12 18 18 16 13 9 7 6 5 5 6 6 6 6 6 6 7 8 7 8 11 12 11 11 11 13 13 13 13 14 14 14 12 9 6 8 13 14 11 12 13 13 14 15 14 15 18 14 10 11 10
9 10 9 9 8 8 7 6 6 6 6 7 9 9 10 10 9 8 6 4 3 2 3 4 5 6 6 6 6 5 5 5 4 6 12 17 18 15 11 9 8 7 6 6 6 6 6 6 7 7 8 8 9 9 10 11 11 11 11 12 12 11 12 13 13 12 10 8 7 10 13 13 10 11 14 15 16 16 15 14 15 13 9 9 9
9 8 8 8 8 8 7 6 5 4 4 6 7 8 10 10 10 9 7 6 4 2 1 2 3 4 3 2 2 2 2 3 3 7 13 16 16 13 10 8 7 6 5 6 6 6 6 7 8 8 8 8 9 10 10 11 11 10 9 10 10 11 12 13 13 12 11 11 10 10 12 12 10 12 15 15 15 16 16 13 12 10 9 9 10
10 9 9 10 9 8 7 6 5 4 4 5 6 7 9 9 9 9 8 6 5 3 2 2 3 4 4 4 3 2 1 0 3 8 13 14 12 9 8 8 7 6 6 6 6 6 6 7 7 7 8 8 9 10 10 10 11 10 10 10 11 12 13 13 13 13 14 12 9 8 11 13 12 13 15 16 16 15 13 11 10 9 10 12 15
11 11 11 10 8 7 7 6 6 5 4 4 5 6 7 8 9 9 8 7 6 5 5 5 5 5 4 4 4 4 4 3 6 10 11 9 7 6 5 6 6 7 6 5 4 4 5 5 5 6 7 8 9 10 11 12 13 13 12 11 12 12 13 14 14 13 12 9 7 9 14 16 15 14 15 16 14 11 9 10 11 12 14 16 17
Wind_Direction
200 189 176 179 188 185 180 180 180 182 182 178 177 179 180 185 190 190 203 216 216 188 175 164 182 174 172 170 165 166 171 176 179 181 189 195 208 231 240 243 232 181 172 177 185 179 175 183 185 183 178 170 168 180 220 235 131 104 84 64 56 54 51 59 68 75 94 106 108 103 101 107 107 106 106 105 108 109 106 104 104 101 103 112 111
212 211 200 202 205 194 188 185 183 183 180 182 184 181 181 184 183 185 195 199 199 191 176 155 185 190 187 182 182 176 167 174 178 182 192 196 206 223 234 244 241 209 184 172 180 185 181 188 192 192 186 181 183 183 203 239 240 180 146 71 41 35 31 44 56 59 72 87 104 109 110 117 114 110 110 110 112 114 115 112 111 108 105 108 106
223 226 218 217 217 202 194 190 186 182 180 187 187 182 183 185 186 188 189 187 191 191 180 134 109 181 189 190 193 186 169 174 179 183 195 206 210 217 230 243 246 229 209 185 176 181 184 189 194 193 192 196 200 195 196 213 224 236 238 223 248 9 6 358 36 54 62 65 83 105 112 114 115 117 116 116 118 119 120 118 117 112 105 103 101
225 223 214 213 221 211 199 193 188 183 181 185 183 183 187 189 188 183 180 180 185 192 184 113 92 149 178 189 197 196 184 177 181 187 198 215 219 215 224 240 250 241 225 208 184 175 179 190 195 190 196 206 208 206 206 202 199 223 244 245 244 295 2 333 299 57 56 57 66 77 95 105 107 122 124 122 123 124 125 122 118 115 111 110 107
233 229 215 201 205 215 211 200 197 193 187 186 188 190 191 197 196 188 182 177 181 191 181 104 85 106 153 178 192 199 201 187 187 196 203 217 224 220 223 234 247 248 240 227 206 184 181 185 191 191 196 205 208 212 212 205 201 213 235 253 250 237 341 353 278 218 48 42 51 49 56 85 94 116 124 127 129 131 134 128 123 123 122 118 114
236 231 223 203 197 215 224 212 206 205 199 194 195 196 194 203 203 201 196 182 182 189 180 138 113 100 118 153 185 196 200 205 212 219 219 218 218 221 227 233 238 240 242 237 223 205 195 193 193 199 199 193 197 210 212 208 212 211 219 244 246 230 255 337 39 354 356 352 12 29 24 33 55 105 125 135 142 141 142 136 131 130 128 125 124
237 225 223 214 200 214 229 225 218 211 203 197 196 199 194 193 199 203 199 188 182 185 184 180 171 158 134 140 191 204 203 212 221 228 234 229 220 222 226 233 241 245 244 239 233 219 207 202 199 206 214 194 189 207 207 203 216 214 211 237 243 228 267 269 247 333 15 341 329 334 359 12 12 24 139 154 155 152 151 148 142 138 138 138 133
259 231 222 223 215 220 231 231 219 203 198 200 201 198 191 195 202 198 192 190 186 185 197 207 203 200 195 192 200 215 219 221 224 226 232 230 226 226 227 232 243 252 251 243 241 233 220 212 205 211 218 212 197 196 189 188 207 212 196 218 240 244 280 277 255 262 284 351 336 294 316 343 353 358 321 205 178 169 164 162 160 155 150 147 142
305 264 238 235 232 232 238 230 210 202 200 204 206 201 204 206 204 197 188 186 186 183 205 204 196 196 199 204 198 210 221 224 230 233 235 234 231 231 231 234 239 248 255 254 250 245 238 227 215 217 223 220 204 184 186 191 205 215 182 190 217 240 275 278 252 251 256 284 339 302 308 324 314 314 304 269 230 202 184 174 173 170 161 155 154
346 302 274 252 250 249 252 230 208 212 208 209 213 210 213 209 199 192 178 174 189 194 211 213 186 173 183 189 190 202 216 220 226 234 239 239 236 238 240 240 245 251 254 257 257 254 252 249 237 231 236 236 223 201 204 208 213 219 210 197 204 219 248 268 246 243 248 255 274 275 295 325 301 279 272 269 257 229 206 189 185 184 177 172 169
22 293 244 255 262 264 264 223 210 211 206 213 221 211 209 202 188 180 178 185 200 195 187 202 191 181 189 189 182 181 199 211 218 229 238 242 241 243 249 250 253 257 259 261 263 262 256 255 252 242 248 254 249 235 218 223 227 227 225 222 221 222 230 244 233 240 245 246 256 262 265 292 307 279 263 260 259 235 215 200 194 194 191 188 187
98 102 109 249 254 246 179 180 199 201 206 221 223 218 210 192 174 177 186 190 196 188 180 188 185 183 194 201 199 186 176 177 176 205 229 243 242 237 250 256 259 263 265 265 263 268 273 266 261 258 267 270 266 262 252 241 240 243 242 236 232 229 226 225 224 245 256 244 244 253 255 254 266 282 268 252 250 243 225 212 202 199 199 198 200
95 97 98 80 325 82 109 119 136 154 198 212 198 203 197 179 168 181 194 186 181 187 184 180 177 184 195 206 216 215 204 193 190 189 182 168 116 116 128 164 246 278 284 284 278 280 289 266 254 253 266 282 283 278 272 265 256 250 253 256 254 242 228 227 229 236 257 253 237 241 252 253 252 263 270 257 244 243 239 232 221 213 211 207 209
92 97 96 83 54 42 62 91 108 121 180 206 174 167 156 158 163 183 198 188 185 192 185 182 188 196 198 210 218 221 219 217 218 215 209 213 215 266 352 26 1 4 0 329 320 313 305 284 268 257 245 259 289 290 281 274 267 259 254 260 265 260 248 241 238 231 234 250 244 242 251 258 258 257 264 269 258 248 247 244 236 231 228 219 217
94 93 86 76 58 36 36 65 102 125 175 205 142 141 141 149 164 184 202 194 190 197 188 187 197 189 195 220 225 224 217 215 219 221 227 231 243 261 286 308 287 301 323 305 317 341 341 319 294 277 255 255 283 286 284 282 275 270 262 260 262 265 265 262 260 248 235 237 242 247 256 261 264 264 263 267 267 261 254 249 245 243 242 237 230
95 88 76 63 49 30 23 35 69 117 152 158 116 128 137 147 163 186 212 210 192 197 196 194 195 188 202 219 209 237 225 202 198 180 317 254 268 281 276 300 287 287 298 295 311 341 354 343 310 304 287 270 278 281 297 324 299 284 273 269 267 266 268 267 271 272 259 247 237 236 247 255 259 259 256 258 261 259 256 253 251 250 249 250 246
86 82 72 47 30 15 8 22 55 97 127 130 125 131 134 147 166 183 204 213 198 193 196 201 208 209 219 218 201 245 242 134 181 127 45 21 355 323 303 307 290 283 288 295 309 325 341 332 305 327 338 302 281 292 333 349 316 301 304 318 318 297 281 271 269 271 267 263 255 239 236 243 249 252 249 247 250 251 251 254 256 260 260 258 255
88 81 62 33 25 14 10 29 63 75 74 63 76 93 102 126 162 179 186 205 204 200 196 194 201 206 216 221 235 306 156 149 199 143 69 46 40 41 31 328 281 289 298 298 317 320 325 321 303 305 344 333 315 324 345 346 332 331 350 5 8 356 330 301 280 273 264 261 261 252 243 241 243 249 254 252 251 250 250 253 258 264 266 263 260
96 86 69 53 45 34 28 48 73 77 76 77 80 82 91 108 126 154 170 186 188 194 194 185 190 198 211 221 223 13 63 154 185 169 115 62 53 59 59 51 33 339 332 307 277 298 334 346 337 290 308 347 356 7 15 11 10 25 34 27 18 2 344 332 314 298 284 269 262 257 252 248 243 244 249 253 258 258 255 259 260 260 259 257 256
96 92 88 79 63 51 48 61 80 85 83 82 79 77 82 100 114 130 144 148 153 162 172 181 191 192 197 215 201 75 75 96 111 143 151 119 83 70 66 66 65 61 58 71 147 73 42 42 63 82 65 45 39 37 42 48 45 40 33 21 11 2 348 335 329 323 309 289 273 260 252 251 250 248 245 245 249 254 255 257 257 256 253 253 254
96 99 98 86 73 65 60 65 80 83 79 75 72 68 68 84 101 110 121 127 131 132 137 152 168 180 183 179 135 106 88 76 95 132 145 136 126 105 87 76 65 58 65 78 85 88 85 80 82 86 81 71 65 59 55 57 54 44 33 20 7 356 341 338 342 329 307 292 287 276 264 259 255 253 254 251 248 252 252 249 250 254 256 258 258
102 104 103 90 77 68 65 70 72 75 74 67 63 65 73 87 96 98 104 109 110 112 112 116 126 149 163 163 143 124 114 95 105 134 146 127 120 117 105 90 73 59 61 69 75 78 80 80 80 80 81 81 82 83 79 77 77 71 55 38 25 8 5 31 42 10 344 331 307 289 284 279 263 252 257 260 255 254 254 250 246 247 254 257 258
116 113 111 98 81 68 77 95 87 82 68 48 59 81 91 95 95 92 91 91 94 105 109 105 106 117 136 149 148 136 133 131 131 143 146 129 124 119 105 97 90 77 67 68 72 74 74 73 73 75 77 78 81 87 87 88 90 84 65 53 48 40 39 45 45 39 34 20 347 327 321 303 277 252 253 255 256 259 259 257 248 246 254 259 257
125 122 116 98 75 70 83 97 100 88 46 53 84 100 103 100 96 92 88 87 90 100 108 109 108 114 124 130 129 125 121 123 132 149 151 140 132 125 120 111 99 91 82 77 74 71 69 67 67 69 73 75 77 81 84 84 82 75 66 64 63 58 54 49 44 51 58 55 46 39 34 24 21 247 248 247 251 257 256 255 253 250 255 260 258
130 124 110 89 73 79 88 92 94 78 63 89 104 108 106 102 96 92 92 93 96 102 109 110 111 114 119 121 118 116 117 122 132 144 150 148 141 131 126 120 113 109 98 87 83 74 67 64 64 66 70 75 78 78 78 76 71 67 64 61 56 49 46 43 40 46 56 58 57 57 51 47 59 74 263 254 252 258 255 250 252 254 256 259 260
138 127 107 85 77 85 87 85 85 78 77 94 108 109 107 101 95 96 100 102 103 106 109 110 111 113 117 119 115 111 111 115 120 126 143 154 151 142 133 122 116 116 104 93 89 80 68 61 60 63 69 75 79 78 76 73 70 65 60 56 49 44 42 41 40 42 46 48 47 48 44 37 40 44 14 321 287 282 278 259 255 262 262 263 261
142 137 114 90 81 84 80 74 73 71 71 79 96 108 107 98 97 103 105 105 105 106 107 109 111 114 118 116 111 108 107 108 105 102 117 146 152 148 143 134 122 116 111 99 84 75 72 66 60 57 63 72 76 79 78 77 75 68 63 65 64 60 57 59 61 61 60 61 58 55 50 40 30 28 18 322 302 298 300 292 279 277 275 274 271
136 142 129 105 90 87 79 69 65 63 63 66 75 91 103 100 104 108 105 101 101 102 105 110 111 113 115 112 107 105 104 101 96 93 99 117 141 156 160 154 143 133 125 113 92 74 64 65 64 55 56 70 76 79 79 78 77 72 67 70 71 68 65 64 66 65 64 64 65 66 62 57 51 48 47 26 351 324 306 298 292 289 286 283 279
127 139 145 132 112 101 89 76 68 64 64 65 67 75 89 101 106 105 102 95 91 95 104 110 112 111 112 109 106 105 103 98 93 89 89 96 115 146 171 177 166 155 144 126 104 82 60 54 61 54 51 64 75 79 79 75 75 74 70 69 69 66 61 58 58 57 58 59 58 58 56 51 48 45 42 38 28 16 0 333 308 299 293 288 283
126 134 151 155 137 125 108 89 79 71 68 66 65 68 76 89 101 102 99 93 84 87 100 108 110 110 111 109 107 106 103 99 92 86 84 85 89 99 121 157 179 163 143 129 105 83 70 60 59 55 52 60 67 72 75 73 72 73 71 67 66 63 54 48 49 48 47 48 47 44 39 33 26 22 20 16 13 7 0 352 337 320 306 300 296
130 133 151 165 162 156 142 119 99 84 73 67 64 62 62 68 84 94 95 92 86 89 98 105 106 108 110 108 107 107 104 103 100 95 92 88 83 81 86 99 115 117 127 133 119 90 79 74 68 64 64 67 67 66 65 64 61 61 60 58 56 51 40 33 33 32 29 27 26 21 14 9 2 358 357 352 347 342 338 336 334 327 317 310 307
143 145 158 168 170 172 165 162 138 108 89 71 62 55 54 56 64 75 79 81 90 97 103 106 106 109 112 105 101 102 102 107 109 106 101 94 87 83 81 83 92 98 105 118 118 109 91 83 82 76 73 72 69 67 65 61 57 54 50 46 43 37 31 23 13 8 4 357 353 349 343 339 334 331 330 328 326 324 322 320 320 320 318 314 309
156 156 163 172 178 181 172 167 160 142 127 91 67 50 42 36 36 45 51 61 89 109 117 120 115 111 114 108 100 100 105 110 113 113 110 103 93 89 87 84 86 91 94 101 112 119 109 88 85 79 73 71 64 62 64 60 57 55 49 43 39 35 33 28 12 360 354 345 336 331 323 318 314 309 306 305 304 304 305 305 306 307 308 308 307
170 167 164 174 187 197 194 180 175 184 191 191 179 75 18 357 353 351 350 346 297 266 203 174 158 134 125 123 108 103 114 121 122 121 115 111 105 98 94 93 93 93 95 100 109 119 122 107 95 82 71 70 64 56 55 54 53 52 48 42 38 34 31 31 21 3 356 352 343 336 330 323 317 311 304 299 296 294 293 293 292 293 293 294 295
189 188 178 179 198 215 220 223 246 264 263 265 271 276 283 302 308 306 308 303 289 279 262 233 218 205 183 173 151 123 125 136 139 137 127 119 112 105 101 97 97 96 98 106 112 120 130 124 110 101 75 67 62 52 46 43 41 41 39 35 33 29 24 24 21 6 357 356 351 345 341 337 332 326 317 309 302 297 294 292 289 287 285 284 283
202 207 202 200 217 237 242 242 241 241 251 268 276 284 294 296 295 295 296 291 284 278 270 258 244 235 222 212 211 191 169 170 166 158 150 139 123 113 109 102 99 98 97 103 111 122 136 133 116 105 84 68 59 46 38 31 26 26 25 21 20 19 15 14 13 6 359 357 354 348 344 342 339 334 326 318 311 305 300 296 293 290 286 281 280
209 214 217 218 235 254 256 255 253 247 249 261 274 291 301 294 290 295 293 284 276 274 275 274 266 255 240 227 226 218 204 198 192 185 177 163 145 130 123 115 109 103 98 100 105 113 124 125 117 97 76 70 55 39 33 28 20 15 12 10 9 7 5 6 6 2 358 356 352 349 346 343 339 334 328 321 315 309 304 300 296 293 289 284 280
218 217 219 218 227 246 253 253 254 258 262 268 282 295 296 290 286 281 278 276 273 270 271 272 270 265 255 242 237 233 224 217 210 205 199 189 177 157 142 133 125 117 110 107 106 107 107 107 110 98 74 63 51 33 24 21 21 16 8 3 360 359 358 359 359 356 354 353 349 346 345 344 341 337 333 327 318 311 305 302 300 294 290 286 281
222 221 223 221 220 231 240 242 246 253 258 269 284 288 287 289 283 267 265 271 276 275 270 268 267 264 258 250 246 244 241 236 232 227 218 208 198 184 165 142 131 128 123 117 113 111 109 106 101 93 80 54 42 28 15 16 19 15 9 1 351 350 351 352 352 350 349 348 346 343 341 343 344 341 338 336 329 322 312 301 298 295 291 289 285
224 226 230 230 226 226 228 233 243 250 260 276 283 280 280 289 286 274 268 267 270 274 272 268 266 262 258 255 251 248 249 249 249 246 237 227 215 199 181 151 133 133 130 124 121 118 115 117 105 86 95 61 35 23 13 17 15 4 2 355 343 339 341 343 344 341 345 347 343 340 337 341 345 344 343 341 334 330 325 313 304 295 288 291 292
230 231 232 231 226 224 229 240 251 257 265 276 278 274 277 285 284 279 274 268 267 271 272 270 269 265 261 260 256 249 248 252 250 244 239 236 224 213 202 175 156 145 138 131 124 123 120 108 93 61 50 46 29 16 9 14 8 353 350 346 339 333 333 334 331 326 339 344 340 336 332 334 341 344 343 335 326 330 335 332 317 297 285 288 293
230 231 232 230 225 229 242 251 256 257 259 263 266 268 270 270 274 278 276 272 270 269 269 270 270 269 267 266 263 256 252 254 248 239 238 234 220 217 221 205 187 169 150 137 112 105 57 28 47 18 359 7 21 11 358 359 355 344 341 339 334 332 332 333 330 321 334 340 338 333 326 326 336 340 335 324 325 332 335 326 312 299 286 283 284
221 227 231 232 230 236 246 251 251 249 248 253 258 260 260 259 267 272 269 267 266 263 265 267 270 275 276 278 278 268 261 260 251 238 234 231 220 216 214 202 197 191 170 144 92 59 343 3 32 2 348 343 344 348 347 346 342 335 334 330 328 333 334 332 329 321 328 337 335 328 320 319 327 329 322 315 320 325 322 315 312 304 290 279 275
215 221 225 226 226 232 238 239 238 238 242 250 252 247 245 245 250 256 259 262 263 262 265 269 273 278 282 286 288 282 274 268 259 242 227 219 215 211 207 203 198 193 190 182 31 356 321 319 329 324 325 321 316 321 332 336 332 325 324 321 322 328 325 318 317 311 314 328 330 322 316 316 316 316 314 307 304 312 316 317 317 311 294 279 273
212 215 217 217 213 214 219 221 225 233 240 241 232 220 211 206 206 218 241 262 271 274 276 277 279 282 287 293 291 287 285 279 271 254 224 211 207 203 201 202 199 203 230 251 279 304 293 289 295 297 298 304 310 314 318 326 328 324 321 319 317 317 311 304 304 302 306 317 323 316 311 312 313 311 311 306 299 304 308 312 319 314 291 275 271
215 212 214 218 212 204 203 205 209 214 210 201 194 189 185 180 177 177 194 256 282 284 283 283 286 288 290 291 288 288 290 287 283 262 222 207 203 198 197 202 207 218 237 245 256 273 273 274 278 277 284 293 302 308 313 321 326 321 314 313 312 307 300 296 296 297 299 302 308 308 304 306 310 307 305 306 306 304 298 302 315 315 284 265 262
202 188 182 186 182 177 179 181 184 182 176 174 175 178 180 180 179 184 195 222 263 281 286 288 291 291 289 287 282 280 283 285 284 251 216 206 202 198 199 206 212 218 228 240 255 262 258 264 269 266 275 290 299 303 309 318 321 318 314 312 310 303 298 297 295 295 293 282 282 298 297 298 305 303 301 305 305 305 300 300 310 311 279 256 252
154 146 141 139 134 137 142 147 155 163 169 172 175 180 187 188 189 192 199 208 223 266 292 303 311 309 303 293 280 266 266 271 262 226 211 205 201 200 202 206 208 216 231 246 257 259 257 263 269 270 277 290 299 304 311 316 316 317 315 310 307 302 299 301 299 298 297 287 285 296 295 295 303 303 302 306 304 302 300 299 304 302 275 249 249
142 141 139 133 127 125 125 129 137 153 170 179 184 190 194 197 200 201 202 209 219 228 293 2 18 23 19 354 303 261 251 264 242 210 202 199 198 200 204 207 209 216 232 249 254 253 259 268 274 279 286 297 307 311 314 315 313 316 311 301 303 306 301 300 299 299 302 299 295 297 293 293 304 306 304 305 303 299 297 296 295 290 277 270 276
150 151 148 138 128 118 110 108 114 133 169 191 197 200 202 202 206 208 206 208 212 200 156 99 80 70 65 70 78 89 103 169 199 190 190 193 199 204 209 210 212 219 231 244 250 257 272 280 284 293 301 306 309 308 308 307 307 308 300 291 296 300 294 293 296 299 301 297 295 300 296 296 305 309 307 307 302 295 292 291 290 285 287 294 296
156 156 154 145 130 116 102 91 89 101 132 174 195 204 204 200 203 208 206 200 197 185 159 134 118 103 93 93 94 93 102 134 167 175 181 189 199 206 215 217 217 222 230 237 246 266 281 283 287 297 301 302 302 302 301 301 300 299 291 284 286 289 287 289 294 298 297 294 299 305 299 299 305 308 308 308 304 296 291 290 291 291 292 295 295
Height
836 836 837 837 836 837 838 838 839 840 840 842 843 843 844 845 846 847 848 848 848 849 849 850 850 850 850 851 851 851 851 851 851 851 852 852 853 853 854 855 855 856 856 856 857 857 857 858 858 858 858 859 859 860 859 859 860 860 860 860 860 859 859 859 859 858 858 858 858 858 859 859 859 858 858 858 858 858 858 858 858 858 858 858 857
837 837 837 836 837 837 838 838 838 838 839 840 841 842 843 844 845 846 847 847 848 848 848 849 849 849 850 850 851 851 851 851 851 851 852 852 852 853 853 854 855 855 856 856 857 857 857 858 858 858 858 859 859 860 860 860 860 860 860 860 860 860 859 859 859 859 859 859 859 859 859 859 859 859 859 859 858 858 858 858 858 859 858 858 858
837 837 837 837 837 838 838 838 838 838 839 839 840 841 842 843 844 845 846 846 847 847 848 848 848 849 849 850 850 850 851 851 851 851 851 852 852 852 853 854 854 855 856 856 857 857 857 858 858 858 859 859 859 860 860 860 860 860 860 860 860 860 860 860 859 859 859 859 859 859 859 859 859 859 859 859 859 859 859 859 859 859 859 859 859
835 835 836 837 837 838 839 839 838 838 838 839 840 841 842 842 843 844 845 845 846 847 847 847 848 848 848 849 850 850 850 850 851 851 851 851 852 852 853 853 854 854 855 856 856 856 857 857 857 858 858 859 859 859 859 860 860 860 860 860 861 861 860 860 860 860 860 860 860 859 859 859 859 859 859 859 859 859 859 859 859 860 860 860 859
834 835 835 836 836 837 838 838 838 838 838 839 840 840 841 842 843 844 844 845 846 846 847 847 847 848 848 848 849 849 850 850 850 851 851 851 851 852 852 853 854 854 855 855 855 856 856 857 857 857 858 858 859 859 859 859 860 860 860 860 860 861 860 860 860 860 860 860 860 860 860 860 860 859 859 859 859 859 859 860 860 860 860 860 860
834 834 835 836 836 836 837 838 838 838 838 838 839 839 840 841 842 844 844 845 846 846 847 847 847 848 848 848 848 849 849 850 850 850 851 851 851 852 852 853 853 854 854 854 855 855 856 856 856 857 857 858 858 859 859 859 859 860 860 860 860 860 860 861 860 860 860 860 860 860 860 860 860 860 860 860 860 860 859 860 860 860 860 860 860
833 834 835 836 837 837 837 837 837 838 838 838 839 839 840 841 842 843 844 844 845 846 847 847 847 848 848 848 848 848 849 850 850 850 851 851 851 851 852 852 853 853 854 854 854 854 855 855 856 856 857 857 857 858 858 858 859 859 859 859 860 860 860 861 861 861 861 861 861 861 860 860 860 860 860 860 860 860 860 860 860 860 861 860 860
834 835 836 836 837 838 838 837 837 837 837 838 838 839 839 840 841 842 843 844 845 846 847 847 847 847 848 848 848 848 849 849 850 850 850 850 851 851 851 852 852 853 853 854 854 854 854 855 856 856 856 857 857 857 857 858 858 858 859 859 859 860 860 860 861 861 861 861 861 861 861 861 861 860 860 860 860 860 860 860 860 860 860 860 861
834 834 835 835 836 837 837 837 837 837 837 837 838 839 839 839 840 841 843 844 845 846 847 847 848 848 848 848 848 848 848 849 849 849 849 850 850 850 851 851 852 852 852 853 854 854 854 855 855 856 856 857 857 857 857 857 858 858 858 859 859 860 860 860 860 861 861 861 861 861 861 861 861 861 861 860 860 860 860 860 860 860 860 860 860
833 834 834 834 835 835 836 836 836 837 837 837 838 838 838 839 840 841 842 843 844 844 846 847 848 848 848 848 848 848 848 848 849 849 849 849 850 850 850 851 851 851 852 852 853 854 854 855 855 855 856 856 857 857 857 857 857 858 858 858 859 859 860 860 860 861 861 861 861 861 861 861 861 861 861 861 860 860 860 860 860 860 860 860 860
833 833 833 833 834 835 835 836 836 837 837 837 837 838 839 839 840 841 841 841 841 842 844 846 847 847 848 848 848 848 848 848 848 849 849 849 849 849 850 850 850 851 851 852 852 853 854 855 855 856 856 856 856 857 857 857 857 857 858 858 859 859 859 860 860 860 860 860 860 860 861 861 861 861 861 861 861 861 860 860 860 860 860 860 860
832 833 833 833 833 834 835 836 836 836 836 837 837 838 839 839 840 840 839 840 840 842 844 845 847 847 848 848 848 848 848 848 848 848 849 849 849 849 850 850 850 850 850 851 852 852 853 854 854 855 856 856 856 856 857 857 857 857 857 857 858 859 859 860 860 859 859 859 859 860 860 860 860 860 860 861 861 861 860 861 860 860 860 860 860
832 833 833 833 833 834 835 835 836 836 836 836 837 838 839 839 840 839 840 841 842 842 844 845 846 847 847 847 848 848 848 848 848 849 849 850 850 850 850 850 850 850 850 851 851 852 853 853 853 854 855 856 856 856 856 856 857 857 857 857 857 858 859 859 859 858 858 858 858 858 859 859 860 860 860 860 860 861 861 861 861 861 861 861 861
833 833 833 833 833 833 834 835 835 836 836 836 837 838 839 839 840 840 840 842 843 843 844 845 845 846 847 847 847 847 848 848 848 849 849 849 850 850 850 850 850 850 850 850 851 851 851 851 853 853 853 854 855 856 855 855 855 856 856 856 857 858 858 858 858 857 858 858 858 858 858 859 860 860 860 860 860 860 861 861 861 861 861 861 861
833 834 834 834 834 834 834 835 836 836 836 836 837 838 839 839 840 840 841 842 843 843 844 844 845 846 846 846 846 846 847 847 847 848 849 849 849 849 850 850 849 850 850 850 851 852 851 850 852 853 852 852 854 856 855 854 855 855 855 855 855 856 857 856 856 856 857 858 858 859 859 859 859 860 860 860 860 860 860 861 861 861 861 861 861
834 834 835 835 835 835 835 835 836 836 836 837 837 838 839 840 841 841 841 842 842 843 844 844 844 845 846 846 846 846 845 845 847 848 849 849 849 849 849 849 849 849 849 850 851 852 851 850 851 852 851 850 853 857 855 852 854 854 853 853 854 855 855 855 855 856 856 857 857 858 858 858 858 858 858 858 858 859 859 860 860 861 861 861 861
835 835 835 835 835 835 835 835 836 836 836 837 837 838 839 840 841 841 841 841 842 843 843 844 844 845 845 845 846 846 845 845 847 848 849 849 849 849 849 849 849 848 848 849 849 850 851 852 851 851 851 851 854 856 853 851 854 855 853 852 852 853 854 854 854 854 855 855 856 856 857 857 856 856 857 857 857 857 858 859 859 860 860 861 860
836 836 836 836 836 836 836 836 836 836 837 837 837 838 839 840 840 841 841 841 841 842 842 843 844 845 845 845 846 847 846 846 846 847 849 850 850 850 849 849 848 848 849 849 849 850 851 852 851 851 852 853 854 853 851 851 855 855 853 852 851 852 852 853 853 853 854 854 855 855 855 855 855 856 856 856 856 856 857 857 858 859 859 859 860
836 836 837 837 837 836 836 836 837 837 837 838 838 838 839 840 840 841 841 841 841 841 842 843 844 844 845 845 846 846 846 846 845 845 848 851 851 850 850 849 848 848 849 849 850 851 851 851 851 851 852 852 853 851 850 852 854 853 852 851 851 851 851 852 852 852 853 853 853 854 854 854 854 855 855 856 856 856 856 856 857 857 858 858 858
837 837 837 837 837 837 837 837 838 838 838 838 839 839 839 839 839 840 840 840 841 841 841 842 843 843 844 845 845 846 847 846 846 845 846 849 851 851 851 851 849 849 849 850 850 851 851 851 851 851 851 851 851 851 851 852 852 852 851 851 850 850 851 851 851 852 852 852 851 852 852 852 853 853 853 854 855 856 856 856 855 855 856 857 858
837 838 838 838 838 838 838 839 839 839 839 839 839 839 839 839 839 840 840 840 840 840 841 842 842 843 844 845 846 846 847 847 847 846 845 847 849 850 851 851 851 851 850 850 851 851 850 851 851 850 850 851 851 851 851 851 851 851 850 850 850 850 850 850 850 851 851 850 850 850 850 850 851 852 852 853 853 854 854 855 855 854 855 856 857
838 838 839 839 839 839 839 839 840 840 840 840 840 840 840 840 840 840 840 840 840 840 841 841 842 842 843 844 846 846 846 847 847 847 846 846 848 849 851 851 852 853 853 852 852 852 852 852 851 851 851 851 851 851 851 851 851 851 850 850 850 850 850 850 850 850 850 849 848 848 848 848 849 850 851 852 852 851 851 850 851 853 853 853 854
839 839 839 840 840 840 840 841 841 841 841 841 841 841 841 841 841 841 841 841 841 841 841 841 841 842 843 844 845 845 845 846 846 846 846 846 847 849 851 851 852 854 854 853 853 853 853 853 853 852 852 852 852 852 852 852 851 851 851 851 851 850 851 851 850 850 850 849 848 847 847 847 847 848 850 851 850 849 848 848 850 852 851 852 853
839 840 840 841 841 841 841 842 842 842 842 842 842 842 842 843 842 842 843 842 842 842 842 842 842 843 844 845 845 845 845 846 846 846 846 846 847 849 851 852 853 855 855 854 854 854 854 854 854 854 854 854 854 854 853 853 853 852 852 851 851 851 851 851 850 850 850 849 848 848 847 846 846 847 848 849 848 847 846 847 849 851 851 851 851
840 840 841 841 841 842 842 843 843 843 844 844 844 844 844 845 845 844 844 844 844 844 844 844 844 844 845 845 846 846 846 846 846 846 846 847 847 848 850 852 853 854 856 855 855 856 856 856 856 856 856 855 855 855 854 854 854 853 853 852 852 852 851 851 850 850 851 850 849 849 848 847 847 847 848 847 847 846 845 846 847 848 848 849 849
841 841 841 842 842 843 843 844 844 844 845 845 845 846 846 846 846 846 846 846 846 846 846 846 846 845 846 846 846 847 847 847 847 847 847 847 847 848 850 852 853 854 855 856 856 857 857 858 858 857 857 856 856 856 856 855 855 854 854 853 852 852 852 851 851 851 851 850 849 849 849 849 848 847 847 847 847 846 845 845 846 846 847 847 847
841 841 842 843 843 844 844 844 845 845 845 846 846 847 847 848 848 848 847 848 848 848 848 847 847 847 847 847 847 848 848 848 848 848 848 848 848 849 849 851 853 854 855 856 857 858 859 859 859 859 858 857 857 857 856 856 856 855 855 854 854 854 853 853 852 852 851 850 850 849 849 849 848 848 847 847 847 846 846 846 846 846 846 846 846
840 841 842 843 844 844 845 845 845 846 846 846 847 848 848 849 849 849 849 849 849 849 849 849 848 848 848 848 849 849 850 850 850 850 849 849 849 850 850 849 851 853 854 856 857 858 859 860 860 860 859 858 858 857 857 857 856 856 855 855 854 855 855 854 853 853 852 851 850 850 849 849 849 848 847 847 846 846 846 845 845 845 845 845 845
839 841 842 843 844 845 845 846 846 846 846 847 848 848 849 850 850 851 851 851 851 851 851 850 850 850 850 850 850 851 851 851 851 851 851 850 850 850 851 850 849 850 851 854 857 859 860 860 860 860 860 859 859 858 858 857 856 856 856 855 855 855 855 855 854 853 853 852 851 851 850 850 849 848 847 846 846 846 845 845 845 844 844 843 843
839 840 842 843 844 845 845 846 846 847 847 847 848 849 850 851 851 852 852 852 852 852 852 852 852 852 852 851 852 852 852 853 853 853 852 852 852 851 851 851 850 850 850 853 857 860 861 861 861 861 861 860 859 859 858 858 857 857 856 856 856 855 855 854 854 853 852 852 851 851 850 850 849 848 847 846 846 846 845 845 845 844 843 842 842
838 839 841 842 843 844 845 846 846 847 847 848 849 849 850 851 852 852 853 853 853 853 853 853 853 854 854 853 853 853 853 853 853 854 854 853 853 853 852 852 851 851 851 852 855 860 861 861 862 861 861 860 860 859 859 858 858 857 857 856 856 855 855 854 853 853 852 851 851 850 850 849 848 848 847 847 846 846 845 845 844 844 843 842 841
837 838 840 841 842 844 844 846 846 847 848 848 849 850 850 851 852 853 853 854 854 854 854 854 854 854 855 855 855 854 854 854 854 854 854 854 854 854 854 853 852 853 853 852 854 859 862 862 862 862 861 861 860 860 859 859 858 858 857 856 856 855 855 854 853 852 851 851 850 850 849 848 848 847 846 846 846 845 845 844 844 843 842 842 841
836 837 839 841 842 843 844 845 846 847 848 848 849 850 851 852 852 853 854 854 855 855 855 855 855 855 855 855 855 855 855 855 855 855 855 855 855 855 854 855 854 854 855 855 856 859 861 862 862 862 861 861 861 860 860 859 858 858 857 856 856 855 854 853 852 852 851 850 849 849 848 847 847 846 846 845 845 844 844 843 843 842 841 841 840
836 837 838 840 842 843 844 845 846 846 847 848 848 850 850 852 852 853 854 854 855 856 855 856 855 855 855 855 855 855 856 856 856 856 856 855 855 855 855 855 856 855 856 856 857 858 861 862 862 862 861 861 861 860 859 859 858 858 857 857 856 855 854 853 853 851 850 849 849 848 847 846 846 845 844 844 843 842 842 841 841 840 840 839 838
835 836 838 839 841 843 844 845 846 846 846 847 848 849 850 851 852 852 853 854 855 856 856 856 856 855 855 855 855 855 855 856 856 856 856 856 856 856 855 855 856 856 856 857 857 858 860 861 862 862 861 860 860 860 859 858 858 858 857 856 855 855 854 853 853 851 850 849 848 847 846 846 845 844 843 842 841 841 840 839 839 838 838 837 836
834 836 837 838 840 841 843 844 845 845 846 846 847 848 849 850 851 852 853 853 854 856 857 857 856 856 855 855 855 855 855 855 856 856 856 856 856 856 855 855 855 856 856 856 857 858 858 860 860 861 860 860 860 859 859 858 858 857 857 856 855 854 853 853 852 851 849 848 847 846 846 845 844 843 842 841 840 839 838 837 837 836 835 835 834
833 835 836 837 838 840 841 843 844 844 845 846 846 847 848 849 850 852 853 853 853 854 856 857 857 856 855 855 854 854 855 855 855 855 855 856 856 856 856 856 855 855 856 856 857 857 858 859 860 860 860 860 860 859 858 858 858 857 856 855 854 853 852 851 851 849 848 847 846 845 844 844 843 841 840 839 838 837 836 835 835 834 833 832 832
832 833 833 835 836 838 840 841 842 842 843 844 845 846 847 848 849 850 851 852 852 852 854 856 857 856 855 854 854 854 854 854 854 855 855 855 856 856 856 855 855 855 855 856 857 857 858 859 859 859 860 859 859 859 858 858 858 857 856 855 854 853 852 850 849 848 847 846 845 843 842 842 840 839 838 837 836 835 834 834 833 832 831 830 829
830 831 832 833 834 835 837 838 839 840 841 842 844 845 845 846 847 848 849 850 851 851 852 853 854 854 854 853 852 852 854 855 855 854 855 855 855 855 856 856 856 855 855 855 856 857 858 858 859 859 859 859 859 859 858 857 857 857 856 855 854 853 851 850 849 847 846 845 843 842 840 839 838 837 836 835 834 833 833 832 831 830 829 828 827
829 830 831 831 832 833 835 836 837 838 839 840 842 843 844 845 845 846 847 848 848 849 849 850 851 851 851 851 850 851 853 854 854 854 854 855 855 855 856 856 856 856 856 856 856 857 857 858 858 858 858 858 858 858 858 857 857 857 856 855 854 852 851 849 848 847 845 844 842 841 839 838 837 835 834 833 832 831 830 830 829 828 827 826 825
828 829 830 831 832 833 834 835 836 836 837 839 840 841 842 843 844 844 845 846 846 847 847 847 848 848 848 848 848 849 850 851 852 853 853 854 854 855 855 855 856 856 856 856 856 856 857 857 857 857 858 858 858 858 857 857 857 856 855 855 854 852 850 849 847 846 844 843 841 840 838 837 835 834 833 833 831 829 828 828 827 826 825 824 823
828 829 829 830 831 831 832 833 834 834 836 837 838 839 840 841 842 842 843 843 844 844 845 845 845 845 845 845 846 846 847 848 849 850 851 852 852 853 854 854 854 855 855 856 856 856 856 856 856 857 857 857 857 857 857 857 856 856 855 854 853 852 850 848 846 844 842 841 840 838 837 835 834 833 832 831 830 828 827 827 825 824 823 822 821
826 828 828 829 829 829 830 831 832 833 834 835 836 837 838 839 840 841 841 842 842 842 843 843 843 843 844 844 844 844 845 845 846 848 850 850 851 851 852 853 853 853 854 854 855 855 855 855 856 856 856 856 856 856 856 856 855 855 854 854 852 851 850 848 846 844 842 840 839 837 836 834 833 832 831 830 828 827 826 825 823 822 821 820 819
824 825 826 827 827 827 828 829 830 831 832 833 834 835 836 838 839 839 840 840 841 841 841 841 842 842 842 842 842 842 842 843 844 846 848 849 850 850 851 852 852 852 853 853 854 854 854 855 855 855 856 856 856 855 855 855 854 854 853 853 852 851 850 848 846 844 842 840 838 836 834 833 832 830 829 828 826 825 823 822 821 820 819 817 817
822 823 824 825 825 825 826 827 828 830 830 831 832 834 835 836 837 838 839 839 840 840 840 840 840 840 840 840 840 841 841 841 842 844 845 846 848 849 849 850 851 852 852 852 853 853 854 854 854 855 855 855 855 854 853 853 853 852 852 851 851 850 849 847 845 843 841 839 838 836 833 831 831 829 827 826 824 823 821 820 819 818 816 815 814
820 821 822 824 824 824 825 826 827 828 829 830 831 833 834 835 836 837 838 839 839 839 839 839 839 838 838 839 839 839 839 840 841 841 843 844 846 848 849 849 850 851 851 851 852 852 853 853 854 854 854 854 854 853 852 851 851 851 850 850 849 848 847 845 843 841 839 837 837 835 832 829 829 827 825 824 822 821 819 817 816 815 813 812 811
820 821 822 823 823 823 824 825 826 827 828 829 831 832 833 834 835 836 837 837 838 838 838 838 837 837 837 837 837 838 838 838 839 840 841 843 845 847 848 849 850 850 850 851 851 851 852 852 852 853 852 852 852 852 851 850 849 849 848 847 846 845 844 842 840 838 837 836 835 834 831 828 827 826 823 822 821 819 817 815 813 812 811 810 809
821 821 822 822 823 824 825 826 826 827 828 829 830 831 832 833 834 835 836 836 836 837 836 836 836 836 836 836 836 836 837 837 838 839 841 843 845 846 847 848 849 849 850 850 850 851 851 851 851 851 851 850 850 850 849 849 848 847 847 846 845 844 842 840 838 836 835 834 833 832 829 826 825 824 822 820 818 816 815 814 812 810 809 808 807
821 822 823 823 824 824 825 826 827 828 828 829 829 830 831 832 833 833 834 835 835 835 835 835 835 835 835 835 835 836 836 837 837 839 840 843 845 846 847 847 848 849 849 849 850 850 850 850 850 850 849 849 848 848 847 847 846 846 846 845 844 843 841 838 836 834 833 832 831 831 828 825 824 823 820 818 817 814 813 811 810 809 807 807 806
822 823 824 824 824 825 826 826 827 828 828 828 829 829 830 831 831 832 833 833 834 834 834 834 835 835 835 835 835 836 836 837 838 839 841 843 845 845 846 847 847 848 848 848 849 849 849 849 848 848 847 847 846 846 845 845 844 844 844 844 842 841 839 837 834 832 831 830 829 829 827 824 823 821 819 816 814 812 811 810 809 808 807 806 805
822 823 824 824 825 825 826 826 827 828 828 828 828 828 829 829 830 831 832 832 833 833 834 834 834 835 835 835 836 836 837 838 839 840 842 844 845 845 846 847 847 847 847 847 848 848 848 848 847 847 846 845 845 844 844 843 843 842 842 841 841 839 837 835 833 831 829 827 827 828 826 823 822 820 818 816 812 810 809 808 807 806 806 804 803